Flock 4g-1

operational
NORAD ID: 62666 Int'l Des: 2025-009 Owner: PLAN Country: US Constellation: planet
LEOCIRCULARRETROGRADESSO

关于 Flock 4g-1

正在加载描述...

实时位置

正在加载3D地球...

即将过境

高度历史

Altitude vs Time

uPlot chart will show altitude changes over time

两行轨道根数

1 62666U 25009BK 25299.16486973 .00013154 00000-0 55123-3 0 9996
2 62666 97.4236 17.8691 0005831 75.2799 284.9084 15.23633385 43200
Epoch: Oct 26, 2025 • Age: 14 hours

当前状态

高度 503.5 km
速度 7.61 km/s
星下点 -21.60°S, 75.31°E
发射日期 Jan 14, 2025
运行时间 0.7 years
类型 other

技术详情

分类 Payload
质量 5.70 kg
干质量 5.70 kg
总质量 5.70 kg
长度 0.30 m
直径 0.10 m
跨度 0.30 m
形状 Box+2 pan
制造商 PLAN
平台类型 Cubesat 3U
阶段状态 In Orbit
所有者/国家 PLAN/US

大型星座

Loading constellations...